EW9943 Weather Reports


time (UTC)temp
C
wind
direction
speed
KPH
gust
KPH
rain 1hr
cm
rain 24hr
cm
rain mn
cm
humidity
%
barometer
mb
20260505031533 10 240 33.8 40.2 0.00 0.00 0.00 76 1005.8
20260505030020 10 250 29.0 33.8 0.00 0.00 0.00 76 1005.8
20260505024519 10 249 27.4 33.8 0.00 0.00 0.00 77 1005.7
20260505023019 10 253 27.4 33.8 0.00 0.00 0.00 77 1005.6
20260505021519 10 257 25.7 32.2 0.00 0.00 0.00 77 1005.6
20260505020018 10 248 29.0 35.4 0.00 0.00 0.00 77 1005.5
20260505014517 10 254 27.4 35.4 0.00 0.00 0.00 77 1005.4
20260505013017 10 264 22.5 29.0 0.00 0.00 0.00 79 1005.4
20260505011517 9 258 24.1 29.0 0.00 0.00 0.00 79 1005.2
20260505010022 9 270 20.9 27.4 0.00 0.00 0.00 79 1005.1
20260505004515 9 253 24.1 27.4 0.00 0.00 0.00 78 1004.8
20260505003014 9 246 19.3 24.1 0.00 0.00 0.00 78 1004.7
20260505001515 9 250 14.5 16.1 0.00 0.00 0.00 80 1004.6
20260505000014 8 241 6.4 8.0 0.00 0.00 0.00 81 1004.5
20260504234513 8 233 4.8 9.7 0.00 0.00 0.00 80 1004.3
20260504233013 8 181 1.6 8.0 0.00 0.00 0.00 80 1004.1
20260504231512 8 180 3.2 6.4 0.00 0.00 0.00 79 1004.0
20260504230013 8 169 1.6 4.8 0.00 0.00 0.00 79 1003.9
20260504224514 9 187 1.6 4.8 0.00 0.00 0.00 78 1003.7
20260504223020 9 177 1.6 6.4 0.00 0.00 0.00 78 1003.6
20260504221510 9 173 1.6 6.4 0.00 0.00 0.00 78 1003.5
20260504220015 9 207 1.6 6.4 0.00 0.00 0.00 78 1003.6
20260504214511 10 163 1.6 6.4 0.00 0.00 0.00 77 1003.6
20260504213020 10 155 1.6 12.9 0.00 0.00 0.00 77 1003.5
20260504211508 9 171 4.8 8.0 0.00 0.00 0.00 77 1003.5
20260504210011 10 208 1.6 8.0 0.00 0.00 0.00 74 1003.4
20260504204522 11 208 0.0 6.4 0.00 0.00 0.00 75 1003.4
20260504203007 10 161 4.8 8.0 0.00 0.00 0.00 76 1003.5
20260504201506 10 236 4.8 11.3 0.00 0.00 0.00 75 1003.5
20260504200006 10 228 6.4 8.0 0.00 0.00 0.00 77 1003.4
20260504194505 10 247 9.7 11.3 0.00 0.00 0.00 74 1003.5
20260504193005 10 311 3.2 8.0 0.00 0.00 0.00 72 1003.7
20260504191503 9 275 14.5 20.9 0.00 0.00 0.00 78 1003.6
20260504190003 9 260 16.1 22.5 0.00 0.00 0.00 76 1003.6
20260504184502 9 256 20.9 25.7 0.00 0.00 0.00 75 1003.5
20260504183002 10 259 22.5 25.7 0.00 0.00 0.00 73 1003.5
20260504181502 10 271 12.9 25.7 0.00 0.00 0.00 70 1003.6
20260504180100 10 259 20.9 27.4 0.00 0.00 0.00 71 1003.5
20260504174614 10 275 6.4 17.7 0.00 0.03 0.00 75 1003.5
20260504173055 9 234 16.1 22.5 0.00 0.03 0.00 77 1003.2
20260504171555 8 231 20.9 29.0 0.00 0.03 0.00 77 1003.3
20260504081534 6 270 17.7 22.5 0.00 0.38 0.00 68 1005.7
20260504050022 6 271 12.9 16.1 0.00 0.43 0.00 73 1005.5
20260504044533 6 273 12.9 17.7 0.00 0.43 0.00 72 1005.4
20260504043023 6 277 9.7 12.9 0.00 0.43 0.00 74 1005.6
20260504041514 6 292 9.7 12.9 0.00 0.43 0.00 71 1005.5
20260504040012 6 273 12.9 17.7 0.00 0.43 0.43 68 1005.4
20260504034512 6 272 12.9 16.1 0.00 0.43 0.43 69 1005.2
20260504033011 6 275 11.3 16.1 0.00 0.43 0.43 68 1005.2